Overview Statistics Trail Chart Weather Telemetry Raw packets
 

This is the latest recevied weather packets stored in our database for station/object SV9TNF-51. If no packets are shown the sender has not sent any weather packets the latest 10 day(s).

<< 6 7 8 9 10 11 12 >>
Time Temp. Humidity Pressure Rain* Wind** Luminosity Snow
1788612463 32.78° C 39% 1014.2 hPa 0 mm 4.92 m/s, 319° - -
1788612163 31.67° C 42% 1014.2 hPa 0 mm 12.07 m/s, 72° - -
1788611863 32.78° C 39% 1014.2 hPa 0 mm 8.94 m/s, 19° - -
1788611563 32.78° C 39% 1014.2 hPa 0 mm 4.02 m/s, 116° - -
1788611263 31.67° C 41% 1014.2 hPa 0 mm 10.28 m/s, 359° - -
1788610963 31.67° C 43% 1014.2 hPa 0 mm 10.73 m/s, 329° - -
1788610662 31.67° C 41% 1014.2 hPa 0 mm 9.39 m/s, 18° - -
1788610362 31.67° C 40% 1014.2 hPa 0 mm 13.41 m/s, 324° - -
1788610062 32.78° C 40% 1014.2 hPa 0 mm 6.26 m/s, 335° - -
1788609762 31.67° C 41% 1014.2 hPa 0 mm 12.07 m/s, 337° - -
1788609462 32.78° C 38% 1014.2 hPa 0 mm 4.47 m/s, 340° - -
1788609164 33.33° C 38% 1014.2 hPa 0 mm 9.83 m/s, 131° - -
1788608862 32.78° C 38% 1014.2 hPa 0 mm 7.15 m/s, 62° - -
1788608562 32.22° C 40% 1014.2 hPa 0 mm 9.39 m/s, 95° - -
1788608262 32.78° C 38% 1014.2 hPa 0 mm 12.07 m/s, 337° - -
1788607961 33.33° C 37% 1014.2 hPa 0 mm 3.13 m/s, 310° - -
1788607662 32.78° C 39% 1014.2 hPa 0 mm 7.15 m/s, 114° - -
1788607361 32.22° C 38% 1014.2 hPa 0 mm 12.52 m/s, 330° - -
1788607061 32.22° C 38% 1014.2 hPa 0 mm 4.92 m/s, 315° - -
1788606761 32.78° C 40% 1014.2 hPa 0 mm 5.81 m/s, 138° - -
1788606461 33.33° C 37% 1014.2 hPa 0 mm 3.13 m/s, 141° - -
1788606161 32.78° C 39% 1014.2 hPa 0 mm 5.81 m/s, 349° - -
1788605861 34.44° C 36% 1014.2 hPa 0 mm 1.79 m/s, 161° - -
1788605561 32.78° C 40% 1014.2 hPa 0 mm 6.26 m/s, 30° - -
1788605261 32.22° C 42% 1014.2 hPa 0 mm 6.71 m/s, 338° - -

* Rain latest hour (hover to see other rain measurements)
** Current wind speed in m/s (hover to see current wind gust speed)